Location: Bermeries
(50.2863°N, 3.7551°E)
Time: 21:02:12
(UTC+00:00)

ATLAS 2AS CENTAUR R/B - Pass Details

Date: 23 May 2024
Orbit: 1017 x 1194 km, 63.7° (Epoch: 14 June)

Event Time Altitude Azimuth Distance (km) Brightness Sun altitude
Rises 01:29:52 0° 314° (NW) 3,933 5.9 -15.2°
Reaches altitude 10° 01:32:42 10° 319° (NW) 2,946 5.3 -14.9°
Maximum altitude 01:39:27 51° 35° (NE) 1,308 3.6 -14.4°
Drops below altitude 10° 01:45:56 10° 111° (ESE) 2,830 5.0 -13.9°
Sets 01:48:36 0° 117° (ESE) 3,767 5.6 -13.7°
